Weather in Nesterovo

Russia / Vologda Oblast     59°40′58″N   39°59′27″E
temp.,
°C
wind,
m/s
gust,
m/s
humid.,
%
clouds,
%
prec.,
mm/h
press.,
hPa
HPBL,
m
19 april, mon
mon1900:00+1ene3106996 0.0 1032369
03:00−1ene310772 0.0 1032297
06:00−1ene310760 0.0 1033353
09:00+4e47510 0.0 1033993
12:00+7e57380 0.0 10321511
15:00+8ese46357 0.0 10321733
18:00+7e4645100 0.0 10311113
21:00+2e2967100 0.0 1032222
20 april, tue
tue2000:00+1ese310710 0.0 1032296
03:00−1e39795 0.0 1032228
06:00−1e310700 0.0 1032341
09:00+5ese58391 0.0 1031896
12:00+8ese57292 0.0 10291429
15:00+9ese58301 0.0 10271629
18:00+8ese584046 0.0 10251398
21:00+4ese41256100 0.0 1024496
21 april, wed
wed2100:00+3e41265100 0.0 1022443
03:00+1e51367100 0.0 1019461
06:00+1e61562100 0.0 1015633
09:00+3ese71564100 0.3 1012964
12:00+2ese61494100 0.8 1009957
15:00+1ese61596100 2.9 1006774
18:00+1ese61597100 1.7 10031094
21:00+3sse61297100 3.4 10021097
22 april, thu
thu2200:00+1s61397100 0.8 10051017
03:00+2s51297100 1.1 10071053
06:00+2s41197100 0.2 1008863
09:00+3s61197100 0.4 1009912
12:00+5ssw61291100 0.1 10091134
15:00+4ssw51197100 1.3 1011894
18:00+2sw4997100 1.4 1013802
21:00+2sw389593 1.6 1016547
23 april, fri
fri2300:000s229774 0.0 101720
03:00+1se229513 0.0 101749
06:00+2se269832 0.0 1017147
09:00+8sse48829 0.0 1017468
12:00+12sse587087 0.0 10151199
15:00+13sse487268 0.4 10141299
18:00+12sse4107587 0.9 1014705
21:00+9se4148655 1.1 1013380